UGATUSAT

Satellite information

Favourite Embed

Satellite Type and Status

PAYLOADIN ORBIT

Key statistics

Satellite UGATUSAT at a glance.

Uptime

5932

Days in orbit

Revolutions

≈ 14.2

Per day

Orbit

SSO

Sun Synchronous Orbit

Inclination

98.7

Latest

Satellite identification and parameters

Extended collection of information and parameters for UGATUSAT.

Object identification

Identified? True

Debris? False

Object name: UGATUSAT

International designator: 2009-049E

Object number (NORAD): 35869

Object ID (CCSDS): 35869

Country: COMMONWEALTH OF INDEPENDENT STATES (CIS)

Current information (Y/N): Y

RCS size: MEDIUM

Orbital parameters

Period: 101.183 minutes

Inclination: 98.7139 deg

SMA: 7192.829 km

Apoapsis: 818.522 km

Periapsis: 810.866 km

RAAN: 304.31 deg

Eccentricy: 0.0005322

Argument of periapsis: 117.8979 deg

Mean anomaly: 242.2738 deg

Mean motion: 14.23158209 rev/day

Mean motion (dot): 0.00000195 rev/day2

B* drag term: 0.00010581 1/REarth

Two-line elements (TLE)

Creation date: Dec. 12, 2025, 7:06 a.m.

Reference frame: TEME

Reference center: EARTH

Epoch: Dec. 11, 2025, 8:50 p.m. UTC

TLE line 0: 0 UGATUSAT

TLE line 1: 1 35869U 09049E 25345.86837865 .00000195 00000-0 10581-3 0 9996

TLE line 2: 2 35869 98.7139 304.3100 0005322 117.8979 242.2738 14.23158209842787

Live tracking on map

Real-time ground track for satellite UGATUSAT.

In-orbit conjunctions

There are no conjunctions computed for UGATUSAT, at the moment. Check back to stay up to date, as we update our databases every day.

Go to all conjunctions

Associated space launch

Russian meteorology satellite

UGATUSAT was lifted into orbit during the mission ‘Soyuz 2.1b/Fregat | Meteor-M 1’, on board a Soyuz 2.1b/Fregat space rocket.

The launch took place on Sept. 17, 2009, 3:55 p.m. from 31/6.

For more information about the launch, click the button.

Launch to space Soyuz 2.1b/Fregat | Meteor-M 1
Soyuz 2.1b/Fregat | Meteor-M 1

Agency: N/A

Status: Launch Successful

Launch date: Sept. 17, 2009, 3:55 p.m. UTC

Rocket: Soyuz 2.1b/Fregat

Launch pad: 31/6

Location: Baikonur Cosmodrome, Republic of Kazakhstan

...

Latest news about this satellite

There are no fresh news available about this satellite. Check back as we update our databases every day.


Newsletter sign-up

Weekly statistics, charts and insights to help you stay on top of the space industry.